DECAYED
Showing default

CHUBUSAT 1, 40300 (Decayed)

Orbit data source: Space-Track

CHUBUSAT 1, 40300 was a payload satellite owned by Nagoya (JP) in LEO that was launched on Thu, 06 Nov 2014 UTC via a DNEPR launch vehicle from the Orenburg, Russia (OREN). Payload-class satellites include a variety of spacecraft equipped with specific instruments for various scientific and technological missions. These include communications satellites like Starlink; space stations such as the ISS; scientific satellites like the Hubble; Earth observation satellites from companies like Planet Labs, Umbra, and HawkEye 360; GPS; miniature CubeSats for education and research; and military/defense satellites.

Not visible in the next 10 days
Identifier
40300, 2014-070C
Orbit
Decayed
Country
Flag of JPJP / JPN
Related business
Manufacturer
Nagoya
Mission
Decayed Amateur Imaging
Bus & Motor
Unknown
Mass
~50 kg wet, ~50 kg dry
Launch date (UTC)
2014-11-06 (11 years ago)
Launch vehicle
DNEPR
Launch site
Orenburg, Russia (OREN)
Object type
Payload
Rocket body
Debris
Shape & HBR
Box, 0.3 m
Radar Cross Section
0.458 m², Medium (>0.1 m² and < 1m²)

Expand to show TLE details & history
Last TLE update: 10 months ago

TLE from 10 months ago
0 CHUBUSAT 1
1 40300U 14070C   25012.69875439  .14599716  24063-5  11754-3 0  9993
2 40300  97.0264  61.4205 0009153 258.8077 101.2201 16.52307711567468
Epoch: 2025-01-12T16:46Z
TLE epoch observation values (Epoch: 2025-01-12T16:46:12.379Z)
Latitude
-0.00004°
Longitude
57.43851°
Altitude
137.709 km
Speed
7.823 km/s
True Right ascension
04h 05m 40s
True Declination
0° 00' 00"
Sunlit
Object was in full shadow at epoch
Visualization orbit readout
Latitude
Unknown
Longitude
Unknown
Altitude
Unknown
Speed
Unknown
Apparent Right ascension
Unknown
Apparent Declination
Unknown
Sunlit
N/A
Visualization observer readout
Local Sidereal Time
03:41:36
Azimuth
Unknown
Elevation
Unknown
Doppler factor
Unknown
Orbital elements
Apogee altitude
135.998 km
Perigee altitude
124.084 km
Semi-major axis
6,508.178 km
Eccentricity
0.00092
Inclination
97.0264°
RAAN
61.4205°
Arg. of periapsis
258.8077°
True anomaly
101.32296°
Mean anomaly
101.2201°
Eccentric anomaly
101.27153°
Mean motion
4.13384 °/min
Orbital period
87.09 mins
BSTAR
0.00011754
Loading maneuver chart data...
Computing Atmospheric mass density...
Loading historical data...
Loading historical data...
Loading historical data...
Loading historical data...
Loading historical data...
Loading historical data...
Loading historical data...

Documentation

Showing up to 5 results
|